Lid_Strength_Index
3 2 2 1 1 1 0 0 0 -0 -0 0 0 0 1 -0 0 -0 -1 -2 -2 -1 -2 -0 -0 0 1 1 1 1 1 1 -0 1 1 0 -0 -0 0 -0 -1 -1 -1
3 3 2 2 2 1 1 0 0 -0 -0 -0 0 -0 -1 0 0 -1 -2 -2 -2 -2 -1 -1 0 1 2 1 1 1 1 2 0 2 2 4 2 1 0 -0 -0 -1 -1
4 3 3 2 1 1 1 0 0 -0 -0 -0 -1 -1 1 1 0 -1 -1 -1 -1 -1 -1 -1 -0 0 1 2 1 1 1 2 1 -0 2 5 6 4 2 1 -1 0 -0
3 3 3 2 2 1 1 0 0 -0 -0 -0 0 1 2 2 0 0 -0 -1 -2 -1 -1 -1 -0 1 1 1 1 2 2 1 3 2 2 1 3 5 5 2 1 0 1
3 3 3 2 2 1 1 0 0 0 0 0 1 1 1 0 0 -0 -0 -1 -1 -1 -1 -0 1 2 2 1 1 2 2 1 2 3 3 3 2 3 4 5 3 0 1
3 3 2 2 2 1 1 1 1 1 1 1 0 0 0 0 1 1 1 0 0 -0 0 1 1 2 2 1 2 1 1 2 3 3 3 3 3 3 3 4 3 3 2
3 3 3 3 2 2 2 1 1 1 1 1 0 0 -0 0 0 0 1 1 1 2 1 1 2 2 1 1 1 1 1 3 3 3 3 2 2 1 2 3 4 4 3
3 3 3 3 2 2 2 2 2 2 1 0 0 -0 -0 0 0 -0 0 1 2 2 1 2 2 2 1 1 1 1 2 2 3 3 3 3 3 2 2 3 4 5 5
4 3 3 3 2 2 2 1 2 1 1 0 -0 -0 -0 -0 0 -0 -0 1 1 1 2 2 3 2 1 1 2 3 3 2 2 2 3 3 2 2 2 2 3 4 7
4 3 3 3 2 2 1 1 1 1 1 0 -0 -0 -0 -0 -0 -0 0 1 1 1 1 2 2 1 1 2 3 2 2 3 3 3 3 3 2 2 2 2 2 3 4
3 3 2 2 2 2 2 1 2 1 1 1 1 0 0 0 -0 0 1 1 0 0 2 3 2 2 3 3 3 2 2 2 2 1 2 2 2 3 2 2 3 3 3
4 3 2 2 2 1 2 2 1 2 2 1 1 1 1 1 1 1 0 0 0 1 2 3 2 3 3 3 2 2 1 2 3 3 3 2 1 0 0 2 3 2 2
4 3 3 2 2 2 2 2 2 2 2 2 2 2 2 2 2 1 0 0 1 2 2 2 3 3 3 2 2 2 2 1 2 2 1 0 1 1 1 1 2 2 2
4 3 3 2 2 2 2 2 2 2 2 3 3 3 3 2 2 1 0 1 2 2 3 3 3 3 3 2 1 2 1 1 1 1 1 1 1 2 1 1 1 2 2
4 4 3 2 3 3 3 3 3 2 3 3 3 3 3 2 2 1 1 2 2 3 3 3 2 2 2 1 1 1 1 1 2 3 2 1 1 1 0 1 1 2 4
4 3 3 3 3 3 3 3 3 4 3 3 3 4 3 3 2 1 2 2 3 4 3 2 1 2 2 3 3 2 1 2 4 4 3 2 3 1 1 1 1 1 3
3 3 3 2 2 3 4 3 4 3 4 3 4 4 3 2 1 1 3 4 3 3 2 2 1 2 0 4 4 3 1 3 3 3 3 3 2 1 1 2 2 3 3
3 3 2 2 2 3 2 2 3 4 4 4 4 3 3 2 2 3 3 3 2 2 2 1 1 2 1 5 6 5 0 2 1 2 2 1 2 1 1 2 3 3 3
3 2 2 2 2 2 2 3 3 4 4 4 4 3 3 2 4 4 4 3 2 2 2 2 2 1 0 6 6 3 1 1 1 1 3 0 0 4 3 2 3 3 3
2 2 2 1 2 2 2 3 4 4 5 4 3 3 2 4 3 3 3 3 3 2 2 2 2 3 2 5 7 3 2 2 1 1 1 6 2 5 4 0 2 3 3
2 2 1 2 2 2 3 5 4 5 4 3 3 2 4 3 3 3 3 4 4 3 1 1 2 2 3 3 6 5 1 3 2 2 2 2 6 6 5 3 0 2 2
2 2 2 2 3 3 4 4 4 4 3 3 2 3 3 3 3 3 3 2 3 3 3 3 4 3 2 6 7 7 6 4 1 3 2 3 7 7 5 3 6 5 3
2 2 2 3 4 4 3 4 4 4 3 3 3 3 2 3 3 4 3 4 3 3 3 3 5 4 3 3 6 7 6 5 3 3 6 6 6 6 5 6 5 3 1
2 2 2 3 4 4 4 4 4 3 2 2 3 3 3 3 2 3 3 4 4 3 3 3 5 4 3 3 2 1 1 3 1 2 2 4 4 4 3 1 1 0 0
2 2 2 3 4 4 4 4 3 3 3 2 3 4 4 4 3 3 6 5 5 5 3 3 3 3 4 4 6 4 1 1 3 1 1 1 2 2 1 1 1 0 0
2 2 3 4 4 3 4 4 3 2 2 3 4 4 4 4 3 2 3 9 9 9 9 9 5 3 7 8 8 9 8 7 5 1 2 3 2 3 2 2 1 1 2